Temp
64 63 63 63 62 62 62 62 62 62 63 63 63 63 63 63 63 63 63 63 64 64 64 64 64 64 68 65 59 70 67 68 73 71 69 68 67 66 62 62 62 60 55 55 54 54 55
64 63 63 62 62 62 62 62 61 62 62 62 62 62 62 63 63 63 63 63 64 64 63 64 64 63 68 59 67 71 68 70 69 71 69 70 68 69 62 58 58 57 56 54 54 53 53
64 63 63 62 62 62 62 61 61 61 62 62 62 62 62 62 62 62 62 63 63 63 63 64 64 72 65 56 69 70 70 68 70 69 66 68 69 66 64 56 59 58 53 54 54 54 53
64 64 63 62 62 61 61 61 61 61 61 61 61 61 61 61 62 62 62 62 62 62 64 64 64 72 56 67 71 68 70 70 72 71 69 70 71 64 62 61 57 55 56 53 52 52 51
64 64 63 63 62 61 61 61 60 61 61 61 61 61 61 61 61 61 61 61 62 63 64 65 69 69 56 67 63 66 67 62 67 69 69 69 67 61 58 57 55 54 54 52 50 53 52
64 64 63 62 62 62 61 61 60 60 60 60 60 60 61 61 61 61 61 61 62 64 69 71 71 62 61 55 61 62 68 65 63 64 63 63 63 59 59 57 49 52 52 50 50 50 50
64 63 63 62 62 62 62 61 60 60 60 60 60 60 60 61 61 60 62 68 64 64 61 54 54 55 56 61 63 62 62 62 64 62 56 58 56 54 51 50 50 50 49 48 52 49 45
63 63 63 62 62 61 61 61 60 60 60 60 60 59 60 60 59 60 66 65 59 63 52 57 56 56 57 58 55 59 65 59 58 53 55 55 51 49 49 49 49 49 46 48 49 47 46
63 63 63 62 62 61 61 61 60 60 60 60 59 59 60 60 60 64 66 61 63 63 59 52 55 55 54 57 52 53 58 56 55 51 53 50 46 48 47 47 45 47 43 44 41 47 49
63 63 62 62 61 61 61 60 60 60 59 59 59 59 59 59 59 65 62 62 63 63 54 49 52 53 56 55 50 56 57 54 52 49 50 47 47 45 46 43 43 43 44 42 41 42 43
62 62 62 61 61 61 60 60 60 59 58 58 58 58 58 57 64 64 62 64 64 62 41 49 51 60 56 52 51 52 56 56 50 47 48 41 43 44 44 40 42 39 43 41 41 41 39
61 62 62 61 61 60 60 60 59 59 58 57 58 57 57 62 66 61 63 63 62 52 37 45 51 50 50 51 50 53 53 57 54 49 48 42 46 44 42 42 42 43 42 41 41 41 32
61 61 61 61 60 60 59 59 59 58 57 57 57 57 60 63 62 62 62 61 52 44 50 45 46 49 49 47 47 49 48 49 47 42 44 42 41 42 43 41 43 42 42 37 35 32 37
61 60 60 60 60 60 59 59 58 58 57 56 55 57 53 57 61 61 60 57 43 49 49 48 48 47 47 46 46 46 46 46 46 46 46 42 37 39 42 40 38 41 40 35 28 34 37
60 60 60 60 60 59 59 59 58 57 56 55 56 58 57 54 57 57 57 45 49 52 53 47 45 45 45 44 45 46 47 47 45 45 40 42 38 39 39 41 40 39 39 39 30 33 31
60 60 59 59 59 59 59 59 58 57 55 55 57 56 51 50 51 51 49 48 51 52 51 52 47 49 46 45 43 45 45 45 41 44 45 40 36 37 37 41 41 39 40 34 35 26 27
60 60 59 59 59 58 58 58 58 57 56 56 53 47 46 50 50 47 40 50 49 51 52 50 50 46 49 45 47 46 46 40 44 42 46 44 40 34 36 36 38 36 34 32 31 31 29
59 59 60 59 58 58 57 57 57 57 56 53 48 40 46 48 40 40 40 50 47 46 49 48 50 49 48 47 44 46 44 43 44 45 41 40 35 36 37 34 36 36 35 35 32 28 31
59 59 59 59 58 57 57 57 56 56 56 47 41 37 46 45 34 34 41 44 47 44 46 45 45 47 45 44 35 43 42 38 41 41 40 39 36 33 32 29 34 33 34 30 27 29 28
59 59 59 58 57 57 57 56 55 55 56 47 40 34 37 39 38 40 41 43 41 44 46 47 43 45 42 39 39 34 38 37 38 40 38 39 32 32 33 31 34 29 32 33 31 28 31
58 58 58 58 58 57 57 56 54 54 53 49 43 39 40 31 34 37 42 41 41 38 44 46 40 42 38 32 36 35 39 35 37 36 37 37 29 32 33 32 30 30 32 33 29 31 29
57 57 58 58 58 57 56 55 53 52 53 47 39 37 38 36 43 37 37 35 41 39 39 40 37 42 39 34 38 33 34 35 36 34 34 28 29 25 24 32 26 21 25 27 30 32 31
56 57 57 57 57 57 56 55 53 53 53 44 41 43 43 36 35 36 35 39 41 40 37 39 39 38 35 38 36 33 33 31 33 32 30 28 27 25 27 24 23 20 24 28 30 30 30
55 57 57 56 56 56 56 54 53 53 54 46 44 44 38 33 35 37 38 40 41 42 33 34 40 36 31 36 36 34 28 25 25 23 28 26 27 29 26 22 18 29 24 25 29 30 31
55 56 56 56 55 55 55 54 52 53 49 45 44 44 38 33 37 36 36 35 35 34 30 31 28 32 36 33 33 30 29 25 20 19 21 24 30 26 22 24 31 33 22 23 23 29 28
55 55 55 55 55 54 54 53 52 51 49 44 41 44 41 35 34 38 36 38 34 32 29 25 29 35 32 35 33 27 28 29 21 17 22 22 24 26 19 18 21 28 24 21 22 22 19
55 55 55 55 54 53 53 52 52 52 50 45 38 40 42 33 31 33 35 35 38 34 28 25 26 27 29 33 30 29 29 21 24 21 16 19 22 20 23 21 27 25 22 19 21 24 16
54 54 54 54 54 53 52 52 53 51 49 46 35 37 41 31 25 26 26 33 33 36 31 26 28 26 28 29 31 32 29 25 24 24 20 20 20 19 22 20 17 23 17 23 19 15 16
53 53 53 54 54 53 53 52 53 51 50 48 37 36 34 29 22 27 25 26 25 25 31 28 29 30 34 33 31 30 26 22 28 26 21 21 29 28 27 28 21 22 16 13 16 18 17
MSLP
1020.14 1020.21 1020.28 1020.31 1020.34 1020.45 1020.36 1020.24 1020.18 1020.08 1020.01 1019.97 1019.81 1019.77 1019.76 1019.84 1019.90 1019.94 1019.91 1019.73 1019.54 1019.38 1019.21 1018.95 1018.67 1018.50 1018.35 1017.77 1019.01 1019.11 1018.89 1018.34 1017.52 1017.16 1016.72 1016.14 1015.60 1015.47 1015.41 1016.07 1016.54 1016.84 1018.33 1019.28 1019.93 1020.05 1020.02
1020.02 1020.11 1020.15 1020.23 1020.35 1020.49 1020.40 1020.35 1020.29 1020.19 1020.16 1020.14 1019.93 1019.93 1020.00 1019.95 1020.03 1020.02 1019.96 1019.82 1019.64 1019.44 1019.21 1018.94 1018.67 1018.51 1018.09 1018.36 1019.83 1019.38 1019.07 1018.31 1017.90 1017.17 1016.82 1016.44 1016.06 1016.11 1016.52 1017.02 1017.27 1018.11 1018.64 1019.48 1020.18 1020.50 1020.72
1019.70 1019.90 1020.06 1020.15 1020.32 1020.38 1020.41 1020.39 1020.37 1020.32 1020.30 1020.23 1020.09 1020.04 1020.14 1020.19 1020.18 1020.09 1020.00 1019.84 1019.68 1019.47 1019.16 1018.91 1018.67 1018.03 1018.15 1019.91 1019.87 1019.57 1019.06 1018.72 1018.29 1017.75 1017.16 1017.30 1017.01 1016.68 1017.04 1017.70 1018.41 1018.41 1018.49 1019.21 1019.89 1020.42 1020.60
1019.56 1019.57 1019.79 1019.99 1020.12 1020.26 1020.33 1020.36 1020.38 1020.40 1020.35 1020.27 1020.19 1020.15 1020.22 1020.24 1020.23 1020.16 1020.00 1019.79 1019.65 1019.47 1019.18 1018.90 1018.62 1017.80 1019.04 1020.09 1019.93 1019.65 1019.14 1018.46 1018.35 1018.16 1017.91 1017.80 1017.50 1017.61 1017.64 1018.39 1018.45 1018.01 1018.18 1018.07 1019.58 1020.25 1020.87
1019.25 1019.35 1019.42 1019.74 1019.96 1020.02 1020.20 1020.27 1020.38 1020.40 1020.36 1020.31 1020.22 1020.17 1020.20 1020.22 1020.23 1020.19 1020.03 1019.78 1019.52 1019.34 1019.16 1018.88 1018.50 1017.91 1019.38 1019.98 1019.90 1020.05 1019.80 1019.30 1018.72 1018.33 1018.22 1018.07 1017.79 1017.87 1018.41 1017.73 1017.50 1017.63 1016.86 1017.87 1019.18 1020.17 1020.43
1018.83 1019.05 1019.13 1019.32 1019.63 1019.81 1019.94 1020.15 1020.31 1020.41 1020.31 1020.33 1020.27 1020.18 1020.21 1020.23 1020.19 1020.16 1020.03 1019.81 1019.44 1019.17 1018.78 1018.55 1018.47 1018.76 1019.97 1020.52 1020.58 1020.43 1019.95 1019.68 1018.93 1018.42 1018.20 1017.95 1017.77 1017.59 1017.81 1017.68 1017.20 1016.99 1017.41 1018.30 1018.87 1020.16 1020.33
1018.34 1018.56 1018.77 1018.87 1019.17 1019.51 1019.76 1019.95 1020.21 1020.29 1020.28 1020.29 1020.31 1020.30 1020.19 1020.20 1020.20 1020.16 1019.95 1019.60 1019.56 1019.12 1019.54 1020.06 1020.31 1020.22 1020.66 1020.97 1020.82 1020.42 1020.35 1019.69 1018.88 1018.42 1017.91 1018.32 1017.96 1017.96 1019.03 1019.43 1019.24 1018.87 1018.82 1018.88 1019.25 1020.59 1020.57
1017.95 1018.10 1018.33 1018.58 1018.75 1019.05 1019.47 1019.77 1019.95 1020.14 1020.24 1020.22 1020.28 1020.29 1020.25 1020.21 1020.26 1020.10 1019.62 1019.19 1019.85 1020.08 1020.54 1021.03 1021.04 1021.05 1021.39 1021.54 1020.71 1020.58 1020.36 1019.65 1018.93 1018.54 1018.80 1018.82 1019.09 1020.70 1020.83 1020.53 1020.15 1019.94 1019.87 1019.67 1020.22 1020.98 1020.87
1017.32 1017.68 1017.91 1018.22 1018.37 1018.64 1018.99 1019.51 1019.80 1019.91 1020.10 1020.23 1020.26 1020.27 1020.28 1020.24 1020.22 1019.93 1019.51 1020.07 1020.40 1020.11 1019.74 1021.13 1021.39 1021.36 1021.76 1021.65 1021.32 1021.26 1020.96 1020.28 1019.50 1019.28 1019.13 1019.46 1021.31 1021.84 1021.79 1021.56 1021.27 1021.06 1021.17 1021.22 1021.51 1020.99 1020.59
1016.66 1017.16 1017.52 1017.76 1018.04 1018.25 1018.50 1019.08 1019.56 1019.81 1019.97 1020.10 1020.26 1020.26 1020.29 1020.35 1020.69 1019.89 1019.83 1020.41 1020.50 1020.40 1019.81 1020.93 1021.15 1021.81 1021.93 1021.71 1021.65 1022.01 1021.78 1021.44 1020.45 1020.17 1020.39 1021.13 1022.28 1022.44 1022.42 1022.67 1022.80 1022.41 1022.79 1022.55 1022.16 1021.51 1020.45
1015.77 1016.48 1016.96 1017.33 1017.52 1017.85 1018.22 1018.56 1019.16 1019.63 1019.88 1020.01 1020.12 1020.16 1020.19 1020.54 1019.80 1019.69 1020.17 1020.40 1020.43 1020.22 1020.05 1021.08 1021.27 1021.94 1021.83 1021.56 1021.87 1021.80 1022.17 1021.17 1020.90 1021.15 1021.53 1022.68 1022.96 1023.07 1023.05 1023.82 1023.82 1023.72 1023.59 1023.12 1022.63 1021.86 1021.52
1014.98 1015.63 1016.22 1016.77 1017.12 1017.42 1017.74 1018.22 1018.75 1019.33 1019.74 1019.94 1020.09 1020.19 1020.29 1020.21 1019.96 1020.43 1020.41 1020.37 1020.23 1019.84 1019.57 1020.59 1021.04 1021.25 1021.24 1021.38 1021.53 1021.50 1021.47 1021.56 1021.81 1021.45 1021.90 1023.21 1024.33 1024.47 1024.65 1024.88 1024.68 1024.50 1023.88 1023.29 1022.85 1022.05 1021.57
1014.01 1014.75 1015.33 1016.10 1016.55 1017.13 1017.43 1017.72 1018.39 1018.93 1019.48 1019.84 1020.01 1020.26 1020.30 1020.18 1020.10 1020.69 1020.54 1020.01 1019.40 1018.78 1019.56 1020.09 1020.55 1020.76 1020.74 1021.05 1021.27 1021.25 1021.12 1021.22 1021.42 1021.54 1021.64 1023.24 1024.16 1025.10 1025.50 1024.93 1024.97 1024.59 1023.45 1022.45 1022.25 1022.11 1021.56
1013.52 1013.85 1014.40 1015.13 1015.93 1016.58 1017.04 1017.48 1018.04 1018.58 1019.26 1019.73 1020.04 1020.25 1020.94 1020.96 1020.98 1020.76 1020.36 1019.53 1018.47 1017.75 1018.22 1019.42 1019.95 1020.47 1020.39 1020.94 1021.17 1021.21 1021.22 1021.24 1021.83 1021.83 1021.63 1022.40 1024.12 1025.13 1025.83 1025.75 1025.39 1024.62 1024.11 1023.66 1022.99 1021.91 1021.74
1012.69 1012.84 1013.59 1014.27 1015.13 1015.82 1016.48 1017.03 1017.82 1018.20 1019.24 1019.74 1020.00 1020.35 1020.68 1021.49 1021.40 1021.30 1020.34 1019.02 1017.41 1017.30 1017.87 1018.80 1019.82 1019.80 1020.20 1020.88 1021.06 1020.96 1021.09 1021.36 1022.20 1022.55 1022.68 1022.82 1024.40 1025.87 1026.31 1026.34 1026.25 1025.31 1024.63 1025.18 1024.53 1023.54 1022.79
1011.99 1012.52 1013.05 1013.45 1014.21 1014.86 1015.70 1016.44 1017.17 1017.90 1019.05 1019.57 1019.68 1020.43 1021.40 1022.06 1021.97 1021.42 1020.81 1018.44 1017.98 1018.12 1018.41 1018.47 1018.38 1019.02 1019.07 1020.19 1020.81 1020.90 1021.09 1022.38 1022.94 1023.36 1023.49 1023.75 1024.52 1026.00 1026.71 1026.76 1026.65 1026.28 1026.23 1025.68 1025.07 1024.04 1022.58
1011.36 1012.08 1012.50 1012.84 1013.43 1013.95 1014.83 1015.68 1016.57 1017.57 1018.65 1019.32 1019.83 1020.82 1022.28 1022.14 1022.00 1021.70 1020.79 1018.73 1018.74 1019.03 1018.97 1019.02 1018.50 1018.93 1019.16 1019.83 1020.47 1020.81 1021.31 1023.21 1023.57 1023.97 1023.97 1023.96 1024.53 1026.25 1026.87 1026.79 1026.43 1027.03 1026.69 1026.59 1026.36 1025.45 1024.04
1011.17 1011.59 1011.66 1012.17 1012.83 1013.45 1014.22 1015.08 1016.09 1017.20 1018.38 1019.44 1020.15 1021.61 1022.50 1022.36 1022.46 1021.81 1020.75 1019.23 1019.31 1019.59 1019.70 1019.65 1019.41 1019.32 1019.67 1020.22 1020.87 1021.46 1022.31 1023.68 1024.69 1024.82 1024.70 1025.17 1025.36 1025.48 1026.55 1027.50 1027.88 1027.52 1026.99 1026.75 1026.44 1026.09 1025.20
1010.71 1011.12 1011.36 1011.57 1012.05 1012.59 1013.39 1014.37 1015.44 1016.54 1017.40 1018.77 1020.38 1022.06 1022.54 1022.25 1022.06 1021.82 1020.86 1020.28 1019.77 1019.94 1020.04 1020.24 1020.16 1020.16 1020.71 1020.95 1021.95 1022.53 1023.78 1025.48 1025.70 1025.89 1025.89 1025.97 1025.95 1025.90 1026.41 1027.79 1028.00 1027.74 1027.36 1027.50 1027.41 1026.69 1025.16
1010.13 1010.37 1010.65 1011.34 1011.45 1011.81 1012.42 1013.27 1014.40 1015.76 1016.92 1017.92 1020.13 1021.61 1022.73 1022.55 1021.87 1021.15 1020.59 1020.25 1020.30 1020.60 1020.37 1020.65 1020.99 1021.35 1021.63 1022.25 1023.13 1023.88 1024.87 1026.23 1026.72 1026.99 1027.39 1027.05 1026.97 1026.44 1026.19 1026.67 1027.02 1027.51 1027.43 1027.54 1027.41 1026.58 1024.25
1009.36 1009.51 1009.81 1010.72 1010.78 1010.98 1011.64 1012.44 1013.49 1014.79 1015.80 1016.96 1018.24 1019.24 1019.63 1021.42 1021.33 1020.68 1020.37 1020.20 1020.35 1020.79 1021.00 1021.23 1021.75 1021.73 1022.29 1023.37 1024.03 1024.53 1025.53 1026.98 1027.45 1027.96 1027.93 1027.88 1027.83 1027.34 1026.83 1027.14 1027.60 1027.73 1027.50 1027.34 1026.83 1025.02 1025.08
1008.68 1009.01 1009.13 1009.71 1009.90 1010.19 1010.70 1011.68 1013.03 1014.12 1015.37 1015.97 1017.17 1018.23 1019.53 1019.83 1019.55 1020.57 1020.71 1020.45 1020.22 1020.89 1021.25 1021.76 1022.15 1022.41 1023.11 1023.87 1024.15 1025.09 1026.02 1027.11 1027.42 1028.64 1028.80 1029.27 1028.99 1028.80 1027.81 1027.28 1027.92 1027.99 1027.39 1026.94 1026.26 1025.78 1025.36
1007.98 1008.10 1008.15 1008.62 1008.93 1009.41 1009.93 1010.79 1012.16 1013.34 1014.09 1015.05 1016.48 1017.12 1017.13 1019.22 1019.64 1019.92 1019.88 1019.91 1020.12 1020.87 1022.22 1022.48 1022.82 1023.78 1024.82 1025.24 1025.69 1026.65 1027.28 1027.86 1028.21 1028.69 1029.32 1029.73 1029.34 1029.22 1027.79 1028.06 1028.21 1027.50 1025.69 1025.78 1025.76 1025.71 1025.58
1007.15 1007.20 1007.46 1007.84 1008.42 1008.62 1009.08 1009.86 1011.39 1012.48 1012.82 1014.01 1015.14 1015.62 1017.04 1018.82 1019.35 1019.08 1019.42 1019.90 1020.44 1021.20 1022.36 1023.80 1023.99 1024.89 1026.80 1026.76 1026.97 1027.69 1028.34 1029.26 1029.77 1030.28 1030.27 1030.15 1029.85 1029.40 1028.23 1028.29 1027.24 1025.18 1025.77 1026.04 1025.91 1025.59 1025.83
1006.67 1006.52 1006.64 1007.21 1007.87 1008.17 1008.23 1009.17 1011.08 1012.96 1013.45 1013.95 1014.46 1014.92 1016.33 1018.45 1019.17 1019.57 1019.97 1020.56 1021.67 1022.72 1023.80 1025.20 1026.55 1026.84 1026.95 1026.98 1027.00 1027.82 1028.69 1029.51 1030.63 1031.31 1031.27 1030.93 1030.04 1029.28 1028.71 1027.31 1025.22 1024.78 1026.64 1027.31 1027.20 1026.60 1026.84
1006.33 1006.35 1006.56 1007.03 1007.61 1007.93 1008.45 1009.62 1010.52 1012.11 1013.23 1013.95 1015.14 1014.92 1015.91 1018.02 1019.90 1019.95 1020.71 1021.24 1022.01 1023.36 1025.26 1026.96 1028.20 1027.91 1027.60 1026.82 1026.54 1026.83 1027.12 1028.02 1030.11 1031.23 1031.73 1031.51 1030.77 1029.71 1029.29 1028.14 1026.09 1025.69 1027.24 1028.21 1028.64 1028.56 1028.60
1006.13 1006.54 1006.63 1007.05 1007.49 1008.03 1008.64 1009.51 1010.74 1011.70 1012.79 1013.73 1015.61 1015.75 1016.35 1018.65 1021.11 1021.41 1021.77 1021.96 1022.33 1023.57 1025.34 1027.09 1028.06 1028.29 1027.87 1026.49 1025.97 1025.93 1026.47 1028.09 1028.61 1029.55 1030.76 1031.00 1030.52 1029.30 1028.61 1028.14 1026.27 1026.71 1028.18 1029.56 1030.52 1030.39 1030.64
1005.97 1006.37 1006.79 1007.27 1007.73 1008.43 1008.96 1009.45 1010.59 1011.81 1012.82 1013.71 1016.21 1016.66 1016.48 1019.33 1022.65 1022.98 1023.18 1023.79 1024.05 1024.04 1024.61 1026.89 1027.49 1027.72 1027.32 1026.30 1025.27 1024.97 1025.70 1026.70 1027.48 1028.04 1028.56 1028.55 1028.72 1028.52 1028.53 1028.45 1027.85 1027.96 1030.07 1030.82 1030.70 1031.28 1031.67
1005.66 1006.24 1006.90 1007.26 1007.75 1008.23 1009.01 1009.46 1010.45 1011.34 1012.45 1013.30 1016.12 1017.44 1017.38 1019.37 1024.34 1024.93 1025.31 1025.89 1026.04 1025.56 1025.02 1025.93 1025.24 1024.90 1024.83 1024.86 1024.85 1025.05 1025.52 1026.43 1026.22 1026.83 1028.06 1027.67 1026.68 1026.87 1026.95 1026.59 1027.46 1028.68 1029.87 1031.13 1031.65 1031.83 1032.57
Wind_Speed
9 8 7 5 3 3 2 2 2 2 2 3 4 5 5 5 4 3 4 7 8 9 9 9 8 6 4 3 5 11 18 14 6 4 3 2 4 2 2 3 2 3 4 5 4 3 3
11 10 8 7 6 4 3 2 2 2 2 2 3 3 2 4 2 1 5 8 8 8 9 8 7 4 4 1 7 12 13 9 9 4 2 2 2 4 6 4 5 4 6 5 3 3 3
12 11 10 9 7 6 4 4 2 2 2 2 2 3 2 2 3 4 7 9 9 9 7 6 6 3 11 6 6 11 11 6 8 5 4 5 3 2 3 6 5 7 4 3 3 3 4
13 12 11 10 9 7 6 4 3 3 2 2 2 3 4 4 4 5 7 9 8 8 5 5 6 3 5 2 6 11 12 2 7 6 8 7 7 7 3 9 5 4 3 4 4 1 3
15 14 13 12 11 9 7 5 4 3 3 2 3 4 4 4 3 4 7 8 7 2 5 4 3 4 5 1 4 10 8 7 6 3 4 2 1 3 4 5 5 5 3 2 5 1 1
17 16 15 13 12 10 9 7 6 4 3 2 3 3 3 2 2 5 7 5 7 5 4 2 3 3 4 5 5 9 7 6 3 1 3 1 2 3 4 5 3 2 2 1 4 4 4
18 17 15 15 14 12 10 9 7 5 3 2 3 3 2 1 2 4 5 3 5 4 10 6 4 3 2 6 3 6 5 6 1 1 2 1 6 4 7 5 4 3 4 4 1 3 5
18 18 17 15 15 14 12 10 9 6 5 4 5 4 1 1 2 2 5 3 3 4 7 4 3 4 3 3 1 10 11 2 2 2 1 5 4 5 2 2 1 1 3 3 2 1 5
20 19 18 17 16 15 13 11 10 8 6 5 6 4 2 2 3 3 2 4 2 4 2 3 3 3 3 5 3 7 9 1 3 3 3 4 6 2 2 1 2 2 3 4 4 8 3
20 19 19 18 16 15 14 12 10 9 6 5 4 3 3 3 3 3 3 4 0 3 5 4 2 3 1 2 2 4 6 4 1 3 4 6 3 1 1 3 5 3 3 1 4 6 4
21 21 20 19 18 16 15 14 13 10 7 7 4 1 4 7 3 3 5 4 1 3 6 3 3 2 1 2 2 4 2 2 3 4 3 5 2 2 1 3 3 3 1 2 4 5 5
24 23 21 20 18 18 17 15 13 11 8 7 6 6 6 3 1 3 5 4 3 5 5 3 1 2 3 2 2 1 1 4 1 2 9 5 2 4 4 2 2 3 3 3 2 2 3
23 24 22 21 19 17 17 17 15 13 10 8 7 5 1 1 2 5 4 3 5 6 2 4 1 1 1 2 2 2 1 3 2 3 4 4 3 3 2 2 3 4 5 3 4 4 2
22 24 23 22 21 20 18 17 17 15 12 12 13 6 5 3 1 4 4 5 8 1 4 3 4 3 3 1 2 1 2 3 2 3 2 3 5 2 4 4 4 3 4 3 5 4 5
18 23 23 23 22 21 21 19 18 17 15 14 13 3 3 4 1 1 5 7 4 3 7 10 4 5 5 3 2 4 2 1 3 4 2 2 4 3 4 2 4 3 0 3 4 2 4
18 17 21 23 23 23 21 21 21 21 17 15 3 3 3 3 3 3 5 7 3 2 6 7 9 5 5 7 5 5 6 2 3 1 3 3 2 1 3 2 3 3 2 4 4 5 6
17 18 18 19 20 23 24 24 24 24 20 14 3 3 2 2 2 3 5 6 4 3 2 6 5 5 5 6 6 4 3 3 1 3 1 1 1 4 2 3 2 4 2 1 2 3 4
15 14 19 19 21 22 23 25 26 24 20 6 3 3 3 3 3 2 6 3 5 6 2 2 1 1 7 7 5 5 4 4 2 2 3 2 2 2 3 3 2 3 2 3 4 5 3
16 17 17 19 23 24 26 27 29 29 22 6 5 2 2 2 5 4 1 2 3 6 6 6 5 1 1 5 4 3 4 2 2 1 2 3 2 3 6 2 3 5 5 2 2 1 9
19 19 17 19 21 25 27 32 35 34 24 6 5 5 1 1 1 3 5 6 6 1 5 3 4 3 4 4 2 5 5 3 2 2 4 1 1 4 7 3 3 4 7 10 7 6 9
14 17 16 19 21 23 26 32 35 36 29 5 4 4 6 7 8 4 5 9 9 7 2 6 2 6 6 4 4 5 5 6 4 3 2 2 4 3 10 5 5 7 12 13 18 19 13
14 15 16 19 20 22 25 32 36 37 29 3 7 6 1 2 7 10 6 6 10 5 8 6 4 10 6 5 3 7 7 6 4 6 5 1 2 1 5 5 4 8 15 18 21 19 19
15 17 19 21 17 17 23 33 38 37 22 3 1 1 4 6 5 10 8 7 10 12 0 5 5 6 4 4 8 9 10 8 5 7 8 5 5 3 4 2 5 10 19 18 8 9 11
11 17 20 18 15 16 22 30 36 38 19 3 4 5 4 4 4 9 8 5 10 6 9 4 4 4 5 15 15 9 12 12 9 9 6 6 4 3 4 2 7 1 2 1 11 7 13
10 18 21 20 16 14 18 30 32 24 6 3 2 3 4 4 3 4 8 8 12 8 6 5 6 3 13 4 3 2 2 2 4 5 4 4 4 3 5 6 14 7 4 5 6 2 6
12 12 22 19 16 18 27 32 34 20 15 5 3 2 5 8 6 6 6 8 6 5 5 5 5 5 1 2 3 4 5 1 4 3 3 1 3 4 3 6 8 4 5 2 1 8 3
16 15 12 18 20 25 30 32 32 22 15 6 3 3 4 6 3 2 4 4 6 5 6 6 6 4 2 3 4 6 4 2 4 7 7 5 4 12 11 8 10 6 9 4 3 3 4
16 16 17 17 21 24 29 31 31 23 20 6 3 4 3 5 3 7 7 2 2 4 7 9 6 2 3 7 6 4 5 5 3 3 7 9 9 7 7 7 13 9 6 8 3 3 4
14 16 17 17 18 25 27 30 28 26 19 8 5 2 6 10 5 5 8 6 5 4 4 7 2 5 5 4 2 3 4 3 3 4 1 6 6 4 10 6 3 8 3 4 2 3 2
Wind_Direction
214 205 201 195 186 189 149 105 79 98 112 116 114 123 125 127 121 81 17 358 347 341 338 335 338 322 263 109 37 339 335 333 321 317 351 311 227 211 185 90 127 85 113 83 85 69 42
217 210 204 199 194 194 172 152 134 118 146 160 144 145 154 152 159 342 340 343 341 337 329 328 340 311 263 229 338 343 338 338 8 335 34 319 11 74 96 57 4 86 94 96 73 85 95
214 212 209 203 201 194 188 173 164 164 176 182 176 171 194 223 248 292 320 331 333 334 335 334 341 308 58 54 340 348 339 353 355 356 86 39 30 316 140 116 117 138 100 132 78 34 31
217 210 209 209 202 200 194 187 182 192 187 192 200 204 218 234 263 292 312 322 323 329 329 315 309 254 72 0 329 5 353 34 23 45 67 42 66 85 30 116 145 214 235 227 105 144 101
217 212 207 208 206 198 198 194 198 200 201 215 213 209 225 231 264 296 309 315 321 254 337 288 252 286 83 290 11 352 11 347 325 54 55 37 41 90 160 216 192 199 265 243 144 112 301
214 212 207 205 207 203 197 198 199 209 205 229 213 200 213 235 282 301 305 292 345 228 283 231 92 157 61 4 333 327 352 333 344 306 177 233 200 197 200 234 324 71 243 185 300 88 246
213 211 208 202 201 204 203 197 201 203 203 206 193 184 178 227 313 319 282 215 215 172 42 51 27 64 50 334 275 14 350 320 230 246 250 110 240 38 36 11 4 2 317 300 61 48 293
215 210 206 202 198 197 201 200 196 199 205 197 182 174 165 116 27 273 270 284 33 40 98 52 64 83 31 340 257 28 340 260 235 130 228 206 52 40 17 9 337 308 302 297 101 27 286
210 211 207 203 198 195 195 199 199 195 200 206 197 196 201 197 224 243 80 97 3 327 296 81 39 20 1 326 45 3 348 322 63 99 51 25 71 10 315 76 309 69 335 1 316 317 252
207 211 209 201 199 195 189 190 195 196 188 183 189 216 226 208 230 151 111 136 25 324 250 117 135 79 290 337 82 2 10 337 88 112 64 72 71 51 119 86 329 256 39 318 305 318 314
205 206 207 205 196 193 191 183 186 190 181 184 186 227 233 221 94 209 96 145 163 225 287 88 106 39 30 352 3 65 4 271 45 95 261 82 70 68 137 54 331 62 318 316 299 279 318
203 205 204 204 199 192 185 184 180 178 179 185 173 129 137 171 211 82 141 150 216 229 251 120 116 148 188 59 78 357 110 84 43 107 56 84 63 10 36 70 16 115 248 236 240 248 237
207 202 198 200 196 194 187 177 176 169 170 179 164 128 248 322 79 150 173 207 236 234 97 140 150 203 116 95 106 2 134 141 279 200 180 151 81 97 350 231 167 231 271 249 202 201 5
217 202 196 193 192 190 185 179 172 167 159 141 133 140 54 47 109 163 224 220 237 23 189 125 138 143 258 163 112 116 196 192 123 273 238 219 181 22 11 27 358 1 332 332 281 300 341
218 199 196 191 189 187 183 176 172 154 151 150 146 106 102 41 40 291 240 211 250 161 136 156 140 209 170 179 263 202 223 166 54 7 287 274 120 119 58 6 332 63 194 43 300 232 258
208 215 203 194 192 185 183 176 168 156 157 164 135 133 70 352 310 72 262 237 204 115 127 174 204 209 204 177 205 209 176 75 121 28 351 60 240 18 91 211 86 338 54 201 177 289 285
216 210 204 200 200 190 181 177 169 162 162 169 90 129 25 328 239 63 237 218 145 156 169 199 205 167 226 173 232 204 128 103 119 130 338 123 282 115 222 200 101 154 173 130 319 275 286
214 225 206 206 201 189 184 176 168 161 151 122 120 167 352 293 99 185 247 202 102 165 162 155 225 155 190 170 188 217 199 53 54 160 142 72 69 266 29 73 344 302 251 232 246 169 228
220 219 218 214 200 193 188 177 166 160 160 123 109 96 324 326 168 207 314 193 158 151 183 179 159 180 137 164 154 168 126 75 89 225 150 158 133 275 179 151 182 232 187 146 99 261 238
222 216 218 215 209 199 189 174 169 169 161 102 134 143 76 23 314 243 176 200 165 69 149 148 121 116 133 142 87 157 143 127 82 92 44 120 154 243 267 23 83 195 209 208 202 230 260
230 214 214 223 214 200 191 178 172 169 165 130 177 178 172 174 216 212 190 178 165 172 189 169 132 208 157 134 150 173 141 139 148 131 117 222 233 251 275 287 232 252 250 222 217 230 249
228 230 225 227 216 204 191 179 174 170 171 144 148 145 134 129 177 167 161 210 186 149 153 191 215 181 174 156 190 177 138 172 180 165 156 63 191 94 271 246 196 252 250 243 248 254 255
233 238 228 208 196 196 193 180 177 173 163 133 133 32 123 150 140 169 184 176 191 137 81 38 141 130 162 109 82 79 69 63 84 149 162 172 158 176 266 72 294 264 238 224 213 208 219
249 231 178 165 174 194 197 177 178 178 174 120 189 123 115 146 173 183 149 138 167 184 135 79 101 106 110 115 108 84 63 65 57 41 22 147 176 192 281 248 241 357 99 360 225 229 217
236 179 163 159 171 192 182 169 170 168 98 106 129 142 125 112 125 107 141 116 102 73 75 77 44 30 147 137 118 158 134 139 57 38 14 357 196 216 257 239 300 268 192 189 185 274 249
207 190 165 165 169 164 160 159 160 138 120 98 50 342 103 128 199 114 126 168 141 116 99 80 66 103 328 190 154 217 227 133 178 116 51 5 329 240 147 246 258 81 126 116 170 267 46
197 183 175 172 167 164 164 159 165 154 121 102 79 22 106 108 50 338 127 163 117 112 98 131 156 170 314 153 183 212 220 359 209 185 165 154 193 222 222 253 276 100 135 152 195 321 100
190 178 172 176 171 168 166 161 162 149 136 108 91 2 81 91 65 15 28 108 122 173 148 143 128 197 159 199 207 189 221 181 209 120 181 176 168 194 202 231 263 140 121 205 76 97 131
188 181 180 176 169 173 172 164 162 148 138 127 101 100 51 70 82 67 86 49 14 355 104 182 7 148 157 176 194 127 176 157 215 233 210 220 228 198 205 223 71 184 64 122 113 107 160